Location: Monroe
(41.9160°N, 83.3980°W)
Time: 21:30:05
(UTC-04:00)

ISS - All Passes

Search period start: 30 September 2016 00:00
Search period end: 10 October 2016 00:00
Orbit: 400 x 410 km, 51.6° (Epoch: 01 October)

Date Brightness Start Highest point End Pass type
(mag) Time Alt. Az. Time Alt. Az. Time Alt. Az.
30 Sep - 00:40:44 10° NNW 00:43:00 17° N 00:45:15 10° NE night (unlit)
30 Sep - 02:16:52 10° NW 02:20:04 48° NNE 02:23:16 10° ESE night (unlit)
30 Sep - 03:53:48 10° W 03:56:21 21° SW 03:58:53 10° S night (unlit)
30 Sep - 18:59:20 10° SSE 19:00:20 11° SE 19:01:19 10° ESE daylight
30 Sep - 20:33:06 10° WSW 20:36:21 84° NNW 20:39:37 10° NE visible
30 Sep - 22:10:42 10° WNW 22:13:13 20° NNW 22:15:45 10° NE visible
30 Sep - 23:48:35 10° NW 23:50:37 15° N 23:52:39 10° NE night (unlit)
01 Oct - 01:24:53 10° NW 01:27:52 31° NNE 01:30:50 10° E night (unlit)
01 Oct - 03:01:19 10° WNW 03:04:24 38° SW 03:07:28 10° SSE night (unlit)
01 Oct - 19:41:08 10° SW 19:44:16 50° SE 19:47:27 10° ENE visible
01 Oct - 21:18:05 10° W 21:20:55 27° NNW 21:23:45 10° NE visible
01 Oct - 22:56:14 10° NW 22:58:12 15° N 23:00:12 10° NE night (unlit)
02 Oct - 00:32:54 10° NW 00:35:34 22° NNE 00:38:15 10° ENE night (unlit)
02 Oct - 02:09:04 10° WNW 02:12:21 76° SW 02:15:37 10° SE night (unlit)
02 Oct - 18:49:30 10° SSW 18:52:16 26° SE 18:55:03 10° ENE daylight
02 Oct - 20:25:34 10° W 20:28:39 39° NNW 20:31:46 10° NE visible
02 Oct - 22:03:40 10° NW 22:05:48 16° N 22:07:56 10° NNE visible
02 Oct - 23:40:52 10° NNW 23:43:13 18° NNE 23:45:34 10° ENE night (unlit)
03 Oct - 01:16:58 10° NW 01:20:13 59° NNE 01:23:28 10° ESE night (unlit)
03 Oct - 02:54:14 10° W 02:56:24 17° SW 02:58:33 10° S night (unlit)
03 Oct - 17:58:32 10° SSE 18:00:20 14° SE 18:02:09 10° E daylight
03 Oct - 19:33:13 10° WSW 19:36:27 68° NNW 19:39:42 10° NE visible
03 Oct - 21:11:00 10° WNW 21:13:24 19° NNW 21:15:48 10° NNE visible
03 Oct - 22:48:43 10° NNW 22:50:49 16° N 22:52:54 10° NE visible
04 Oct - 00:24:56 10° NW 00:27:59 36° NNE 00:31:03 10° E night (unlit)
04 Oct - 02:01:30 10° WNW 02:04:26 30° SW 02:07:21 10° SSE night (unlit)
04 Oct - 18:41:06 10° SW 18:44:18 65° SE 18:47:33 10° ENE daylight
04 Oct - 20:18:19 10° WNW 20:21:02 24° NNW 20:23:46 10° NE visible
04 Oct - 21:56:24 10° NW 21:58:22 15° N 22:00:20 10° NE visible
04 Oct - 23:32:55 10° NW 23:35:42 25° NNE 23:38:28 10° E night (unlit)
05 Oct - 01:09:09 10° WNW 01:12:23 59° SW 01:15:36 10° SE night (unlit)
05 Oct - 17:49:18 10° SSW 17:52:14 33° SE 17:55:13 10° ENE daylight
05 Oct - 19:25:42 10° W 19:28:43 33° NNW 19:31:43 10° NE daylight
05 Oct - 21:03:52 10° NW 21:05:55 15° N 21:07:58 10° NNE visible
05 Oct - 22:40:52 10° NW 22:43:20 19° NNE 22:45:47 10° ENE visible
06 Oct - 00:16:58 10° NW 00:20:14 74° NE 00:23:30 10° ESE night (unlit)
06 Oct - 01:54:42 10° W 01:56:19 13° SW 01:57:56 10° SSW night (unlit)
06 Oct - 16:57:59 10° S 17:00:14 18° SE 17:02:31 10° E daylight
06 Oct - 18:33:15 10° WSW 18:36:27 54° NNW 18:39:40 10° NE daylight
06 Oct - 20:11:12 10° NW 20:13:28 17° NNW 20:15:46 10° NNE visible
06 Oct - 21:48:44 10° NNW 21:50:53 16° N 21:53:03 10° NE visible
06 Oct - 23:24:52 10° NW 23:28:01 42° NNE 23:31:09 10° ESE night (unlit)
07 Oct - 01:01:38 10° W 01:04:20 24° SW 01:07:04 10° S night (unlit)
07 Oct - 17:41:00 10° SW 17:44:14 82° SSE 17:47:30 10° ENE daylight
07 Oct - 19:18:27 10° WNW 19:21:03 21° NNW 19:23:39 10° NE daylight
07 Oct - 20:56:26 10° NW 20:58:25 15° N 21:00:24 10° NE visible
07 Oct - 22:32:48 10° NW 22:35:41 28° NNE 22:38:34 10° E visible
08 Oct - 00:09:08 10° WNW 00:12:18 46° SW 00:15:26 10° SE night (unlit)
08 Oct - 16:49:02 10° SSW 16:52:07 42° SE 16:55:12 10° ENE daylight
08 Oct - 18:25:46 10° W 18:28:40 29° NNW 18:31:35 10° NE daylight
08 Oct - 20:03:56 10° NW 20:05:55 15° N 20:07:55 10° NE visible
08 Oct - 21:40:44 10° NW 21:43:18 21° NNE 21:45:52 10° ENE visible
08 Oct - 23:16:51 10° NW 23:20:08 89° SSW 23:23:24 10° SE night (unlit)
09 Oct - 00:55:38 10° WSW 00:56:07 10° SW 00:56:35 10° SW night (unlit)
09 Oct - 15:57:27 10° S 16:00:02 22° SE 16:02:38 10° E daylight
09 Oct - 17:33:12 10° WSW 17:36:20 45° NNW 17:39:29 10° NE daylight
09 Oct - 19:11:15 10° NW 19:13:26 16° N 19:15:37 10° NNE daylight
09 Oct - 20:48:36 10° NNW 20:50:51 17° N 20:53:06 10° NE visible
09 Oct - 22:24:41 10° NW 22:27:53 51° NNE 22:31:05 10° ESE visible
